Weather History for KTQH - February, 2013

Change the Weather History Date:

Sunday, February 10, 2013

  Actual Average (KMKO) Record (KMKO)
Temperature  
Mean Temperature 50 °F -  
Max Temperature 59 °F 51 °F 79 °F (1999)
Min Temperature 37 °F 30 °F -6 °F (2011)
Degree Days  
Heating Degree Days 15    
Moisture  
Dew Point 36 °F    
Average Humidity 64    
Maximum Humidity 100    
Minimum Humidity 34    
Precipitation  
Precipitation 0.30 in - - ()
Sea Level Pressure  
Sea Level Pressure 29.80 in    
Wind  
Wind Speed 12 mph (SW)    
Max Wind Speed 22 mph    
Max Gust Speed 31 mph    
Visibility 9 miles    
Events      
Averages and records for this station are not official NWS values.
T = Trace of Precipitation, MM = Missing Value Source: NWS Daily Summary

Daily Weather History Graph

Daily Weather History Graph

Search for Another Location

Airport or City:

Trip Planner

Search our weather history database for the weather conditions in past years. The results will help you decide how hot, cold, wet, or windy it might be!

Date:

Astronomy

Feb. 10, 2013 Rise Set
Actual Time 7:12 AM CST 5:56 PM CST
Civil Twilight 6:45 AM CST 6:23 PM CST
Nautical Twilight 6:15 AM CST 6:53 PM CST
Astronomical Twilight 5:45 AM CST 7:23 PM CST
Moon 7:04 AM CST (2/10) 6:45 PM CST (2/10)
Length of Visible Light 11h 37m
Length of Day
10h 44m
New Moon, 0% of the Moon is Illuminated
Feb 10
New Moon
Feb 17
First Quarter
Feb 25
Full
Mar 4
Last Quarter
Mar 11
New

Hourly Weather History & Observations

Time (CST) Temp. Windchill Dew Point Humidity Pressure Visibility Wind Dir Wind Speed Gust Speed Precip Events Conditions
12:15 AM 42.8 °F 36.6 °F 41.0 °F 93% 29.79 in 10.0 mi SE 11.5 mph 17.3 mph N/A   Overcast
12:35 AM 42.8 °F 37.0 °F 41.0 °F 93% 29.79 in 10.0 mi SE 10.4 mph 16.1 mph N/A   Overcast
12:55 AM 42.8 °F 35.1 °F 41.0 °F 93% 29.77 in 10.0 mi SE 16.1 mph 25.3 mph N/A   Overcast
1:15 AM 44.6 °F 36.9 °F 41.0 °F 87% 29.75 in 10.0 mi SE 18.4 mph 26.5 mph N/A   Overcast
1:35 AM 44.6 °F 36.1 °F 42.8 °F 93% 29.72 in 7.0 mi SE 21.9 mph 28.8 mph N/A   Overcast
1:55 AM 44.6 °F 36.9 °F 42.8 °F 93% 29.71 in 7.0 mi SE 18.4 mph 31.1 mph N/A   Overcast
2:35 AM 44.6 °F 38.4 °F 42.8 °F 93% 29.74 in 2.0 mi SE 12.7 mph - 0.09 in   Overcast
2:55 AM 44.6 °F 37.2 °F 42.8 °F 93% 29.71 in 2.0 mi SE 17.3 mph - 0.18 in   Overcast
3:15 AM 44.6 °F 36.9 °F 44.6 °F 100% 29.68 in 3.0 mi SE 18.4 mph 21.9 mph 0.03 in   Overcast
3:35 AM 44.6 °F 36.4 °F 44.6 °F 100% 29.66 in 3.0 mi SE 20.7 mph 31.1 mph 0.07 in   Overcast
3:55 AM 44.6 °F 38.8 °F 44.6 °F 100% 29.67 in 7.0 mi SE 11.5 mph 17.3 mph 0.08 in   Mostly Cloudy
4:15 AM 44.6 °F 39.2 °F 44.6 °F 100% 29.67 in 10.0 mi SE 10.4 mph - N/A   Overcast
4:35 AM 44.6 °F 40.2 °F 44.6 °F 100% 29.67 in 7.0 mi SE 8.1 mph - 0.01 in   Overcast
4:55 AM 44.6 °F 40.2 °F 44.6 °F 100% 29.68 in 7.0 mi SSE 8.1 mph - 0.01 in   Overcast
5:15 AM 46.4 °F 42.9 °F 46.4 °F 100% 29.67 in 5.0 mi SSE 6.9 mph - 0.01 in   Overcast
5:35 AM 46.4 °F 42.9 °F 46.4 °F 100% 29.66 in 10.0 mi SE 6.9 mph - 0.02 in   Overcast
6:15 AM 50.0 °F - 50.0 °F 100% 29.67 in 7.0 mi South 8.1 mph - 0.01 in   Overcast
6:35 AM 50.0 °F - 50.0 °F 100% 29.68 in 10.0 mi SSW 4.6 mph - 0.01 in   Overcast
6:55 AM 50.0 °F - 50.0 °F 100% 29.70 in 10.0 mi SSW 9.2 mph - 0.01 in   Overcast
7:15 AM 51.8 °F - 51.8 °F 100% 29.69 in 10.0 mi South 11.5 mph 17.3 mph N/A   Overcast
7:35 AM 51.8 °F - 51.8 °F 100% 29.70 in 10.0 mi SSW 8.1 mph - N/A   Overcast
7:55 AM 51.8 °F - 50.0 °F 94% 29.71 in 10.0 mi SSW 6.9 mph - N/A   Scattered Clouds
8:15 AM 51.8 °F - 50.0 °F 94% 29.71 in 10.0 mi SSW 8.1 mph - N/A   Clear
8:35 AM 51.8 °F - 50.0 °F 94% 29.73 in 10.0 mi SW 6.9 mph - N/A   Clear
8:55 AM 51.8 °F - 46.4 °F 82% 29.73 in 10.0 mi SSW 10.4 mph - N/A   Clear
9:15 AM 53.6 °F - 46.4 °F 77% 29.73 in 10.0 mi SW 10.4 mph 16.1 mph N/A   Clear
9:35 AM 53.6 °F - 41.0 °F 62% 29.74 in 10.0 mi SW 15.0 mph 23.0 mph N/A   Clear
9:55 AM 53.6 °F - 37.4 °F 54% 29.74 in 10.0 mi WSW 10.4 mph 19.6 mph N/A   Clear
10:15 AM 53.6 °F - 33.8 °F 47% 29.74 in 10.0 mi WSW 13.8 mph 18.4 mph N/A   Clear
10:35 AM 55.4 °F - 32.0 °F 41% 29.75 in 10.0 mi WSW 11.5 mph 18.4 mph N/A   Clear
10:55 AM 55.4 °F - 32.0 °F 41% 29.76 in 10.0 mi WSW 16.1 mph 21.9 mph N/A   Clear
11:15 AM 55.4 °F - 32.0 °F 41% 29.76 in 10.0 mi WSW 16.1 mph 21.9 mph N/A   Clear
11:35 AM 55.4 °F - 33.8 °F 44% 29.76 in 10.0 mi WSW 11.5 mph 18.4 mph N/A   Clear
11:55 AM 57.2 °F - 32.0 °F 38% 29.76 in 10.0 mi SW 13.8 mph 19.6 mph N/A   Clear
12:15 PM 57.2 °F - 32.0 °F 38% 29.76 in 10.0 mi WSW 12.7 mph 19.6 mph N/A   Clear
12:35 PM 59.0 °F - 32.0 °F 36% 29.75 in 10.0 mi WSW 11.5 mph 18.4 mph N/A   Clear
12:55 PM 59.0 °F - 32.0 °F 36% 29.75 in 10.0 mi West 13.8 mph 20.7 mph N/A   Clear
1:15 PM 59.0 °F - 32.0 °F 36% 29.75 in 10.0 mi West 19.6 mph 24.2 mph N/A   Clear
1:35 PM 59.0 °F - 32.0 °F 36% 29.76 in 10.0 mi WSW 17.3 mph 23.0 mph N/A   Clear
1:55 PM 59.0 °F - 32.0 °F 36% 29.75 in 10.0 mi West 12.7 mph 26.5 mph N/A   Clear
2:15 PM 59.0 °F - 32.0 °F 36% 29.75 in 10.0 mi WSW 13.8 mph 19.6 mph N/A   Clear
2:35 PM 59.0 °F - 32.0 °F 36% 29.76 in 10.0 mi West 15.0 mph 21.9 mph N/A   Clear
2:55 PM 59.0 °F - 32.0 °F 36% 29.77 in 10.0 mi WSW 10.4 mph 21.9 mph N/A   Clear
3:15 PM 59.0 °F - 30.2 °F 34% 29.77 in 10.0 mi West 13.8 mph 24.2 mph N/A   Clear
3:35 PM 59.0 °F - 30.2 °F 34% 29.78 in 10.0 mi WSW 15.0 mph 25.3 mph N/A   Clear
3:55 PM 59.0 °F - 30.2 °F 34% 29.78 in 10.0 mi WSW 9.2 mph - N/A   Clear
4:15 PM 59.0 °F - 30.2 °F 34% 29.79 in 10.0 mi WSW 12.7 mph - N/A   Clear
4:35 PM 59.0 °F - 30.2 °F 34% 29.79 in 10.0 mi West 9.2 mph 16.1 mph N/A   Clear
4:55 PM 59.0 °F - 30.2 °F 34% 29.80 in 10.0 mi WSW 10.4 mph - N/A   Clear
5:15 PM 57.2 °F - 30.2 °F 36% 29.82 in 10.0 mi WSW 9.2 mph - N/A   Clear
5:35 PM 55.4 °F - 30.2 °F 38% 29.82 in 10.0 mi WSW 8.1 mph 17.3 mph N/A   Clear
5:55 PM 53.6 °F - 30.2 °F 41% 29.84 in 10.0 mi West 6.9 mph - N/A   Clear
6:15 PM 51.8 °F - 30.2 °F 44% 29.84 in 10.0 mi WSW 4.6 mph - N/A   Clear
6:35 PM 51.8 °F - 30.2 °F 44% 29.86 in 10.0 mi WSW 3.5 mph - N/A   Clear
6:55 PM 50.0 °F - 30.2 °F 47% 29.87 in 10.0 mi Calm Calm - N/A   Clear
7:15 PM 48.2 °F - 32.0 °F 54% 29.90 in 10.0 mi WNW 8.1 mph - N/A   Clear
7:35 PM 50.0 °F - 28.4 °F 43% 29.91 in 10.0 mi WNW 11.5 mph - N/A   Clear
7:55 PM 50.0 °F - 28.4 °F 43% 29.93 in 10.0 mi WNW 11.5 mph - N/A   Clear
8:15 PM 48.2 °F - 28.4 °F 46% 29.95 in 10.0 mi NW 12.7 mph 18.4 mph N/A   Clear
8:35 PM 46.4 °F 40.1 °F 30.2 °F 53% 29.97 in 10.0 mi NW 15.0 mph 26.5 mph N/A   Clear
8:55 PM 46.4 °F 40.7 °F 28.4 °F 50% 29.99 in 10.0 mi NW 12.7 mph 21.9 mph N/A   Clear
9:15 PM 44.6 °F 38.4 °F 28.4 °F 53% 30.01 in 10.0 mi NW 12.7 mph 16.1 mph N/A   Clear
9:35 PM 44.6 °F 39.2 °F 28.4 °F 53% 30.02 in 10.0 mi NW 10.4 mph 17.3 mph N/A   Clear
9:55 PM 42.8 °F 37.5 °F 28.4 °F 57% 30.04 in 10.0 mi NNW 9.2 mph 18.4 mph N/A   Clear
10:15 PM 42.8 °F 38.0 °F 28.4 °F 57% 30.05 in 10.0 mi NW 8.1 mph - N/A   Clear
10:35 PM 42.8 °F 38.0 °F 28.4 °F 57% 30.05 in 10.0 mi NW 8.1 mph - N/A   Clear
10:55 PM 41.0 °F 34.7 °F 28.4 °F 61% 30.06 in 10.0 mi NNW 10.4 mph - N/A   Clear
11:15 PM 41.0 °F 35.8 °F 28.4 °F 61% 30.06 in 10.0 mi NW 8.1 mph - N/A   Clear
11:35 PM 41.0 °F 35.8 °F 28.4 °F 61% 30.07 in 10.0 mi NNW 8.1 mph - N/A   Clear
11:55 PM 37.4 °F 32.8 °F 28.4 °F 70% 30.07 in 10.0 mi NNW 5.8 mph - N/A   Clear